Flag for Kuwait Weather past 2 weeks in Kuwait City, Kuwait

Now
95 °F

Sunny.


Feels Like: 91 °F
Forecast: 91 / 112 °F
Wind: 17 mph from Northwest

Location: Kuwait International Airport

Current Time: Jul 30, 2014 at 6:59:48 AM

Latest Report: Jul 30, 2014 at 6:00 AM


Visibility: 10 mi

Pressure: 29.39 "Hg

Humidity: 16%

Dew point: 43 °F

Location of Kuwait CityLocation

Historic Weather in Kuwait City — Graph

°F

Kuwait City temperature yesterday

Maximum temperature yesterday: 111 °F (at 2:00 PM)
Minimum temperature yesterday: 86 °F (at 4:00 AM)
Average temperature yesterday: 101 °F

Past Weeks' High & Low Weather Summary

 TemperatureHumidityPressure
High120 °F (Jul 17, 2:00 PM)30% (Jul 21, 5:00 AM)29.65 "Hg (Jul 21, 5:00 AM)
Low82 °F (Jul 16, 4:00 AM)6% (Jul 15, 1:00 PM)29.36 "Hg (Jul 18, 4:00 PM)
Average104 °F14%29.48 "Hg
* Reported Jul 15 5:00 AM — Jul 30 5:00 AM, Kuwait City, Weather by CustomWeather, © 2014

Note: Actual official high and low records may vary slightly from our data, if they occured in-between our weather recording intervals... More about our weather records

Advertising

Kuwait City weather history for previous 24 hours

 ConditionsComfort  
Time TempWeatherWind HumidityBarometerVisibility
5:00 AM
Jul 30
93 °FClear.8 mph17%29.39 "Hg10 mi
4:00 AM91 °FClear.8 mph20%29.36 "Hg10 mi
3:00 AM93 °FClear.9 mph19%29.36 "Hg10 mi
2:00 AM99 °FClear.12 mph17%29.36 "Hg10 mi
1:00 AM99 °FClear.9 mph17%29.36 "Hg10 mi
12:00 AM99 °FClear.9 mph17%29.39 "Hg10 mi
11:00 PM
Jul 29
97 °FClear.7 mph16%29.39 "Hg10 mi
10:00 PM97 °FClear.No wind16%29.39 "Hg10 mi
9:00 PM100 °FClear.6 mph15%29.39 "Hg10 mi
8:00 PM106 °FClear.9 mph13%29.39 "Hg10 mi
7:00 PM108 °FClear.14 mph12%29.39 "Hg10 mi
6:00 PM109 °FSunny.16 mph10%29.36 "Hg10 mi
5:00 PM111 °FSunny.15 mph11%29.39 "Hg10 mi
4:00 PM111 °FSunny.15 mph12%29.39 "Hg10 mi
3:00 PM111 °FSunny.21 mph12%29.39 "Hg10 mi
2:00 PM111 °FSunny.17 mph12%29.42 "Hg10 mi
1:00 PM109 °FSunny.20 mph13%29.42 "Hg10 mi
12:00 PM108 °FSunny.20 mph14%29.45 "Hg10 mi
11:00 AM108 °FSunny.17 mph15%29.45 "Hg10 mi
10:00 AM106 °FSunny.15 mph15%29.47 "Hg10 mi
9:00 AM104 °FSunny.15 mph17%29.47 "Hg10 mi
8:00 AM99 °FSunny.12 mph19%29.47 "Hg10 mi
7:00 AM91 °FSunny.10 mph21%29.47 "Hg10 mi
6:00 AM86 °FSunny.8 mph25%29.47 "Hg10 mi
Weather by CustomWeather, © 2014

See weather overviewHow to use our weather pages